This demonstration page uses our WeatherBlox Daily Observations layout. Learn more.

Left ArrowRight Arrow

Hourly Observations for April 23, 2018

Temp ( °F °C ) Dew Point ( °F °C ) Humidity (%) Winds ( mph kmh ) Pressure ( in mb ) Visibility ( mi km ) Precip ( " mm )
12:53 am 00:53 Clear 52 11.1 36 2.2 55 55 NE 3 6 30.14 1021 10 16 0.00 0.00
1:53 am 01:53 Clear 50 10 36 2.2 59 59 NNW 3 6 30.14 1021 10 16 0.00 0.00
2:53 am 02:53 Clear 48 8.9 37 2.8 66 66 Calm 30.11 1020 10 16 0.00 0.00
3:53 am 03:53 Clear 47 8.3 35 1.7 63 63 ENE 7 11 30.11 1020 10 16 0.00 0.00
4:53 am 04:53 Clear 47 8.3 36 2.2 66 66 NE 6 9 30.10 1019 10 16 0.00 0.00
5:53 am 05:53 Clear 51 10.6 35 1.7 54 54 E 5 7 30.10 1019 10 16 0.00 0.00
6:53 am 06:53 Sunny 52 11.1 36 2.2 55 55 E 6 9 30.11 1020 10 16 0.00 0.00
7:53 am 07:53 Sunny 55 12.8 39 3.9 55 55 ESE 7 11 30.12 1020 10 16 0.00 0.00
8:53 am 08:53 Sunny 58 14.4 41 5 53 53 ESE 6 9 30.14 1021 10 16 0.00 0.00
9:53 am 09:53 Mostly Sunny 62 16.7 44 6.7 52 52 ESE 8 13 30.13 1020 10 16 0.00 0.00
10:53 am 10:53 Cloudy 61 16.1 46 7.8 58 58 VRB 7 11 30.13 1020 10 16 0.00 0.00
11:53 am 11:53 Cloudy with Light Rain 57 13.9 51 10.6 81 81 VRB 3 6 30.15 1021 5 8 0.03 0.76
12:53 pm 12:53 Cloudy with Rain 56 13.3 52 11.1 87 87 E 10 17 30.16 1021 4 6 0.08 2.03
1:53 pm 13:53 Cloudy with Light Rain 56 13.3 53 11.7 90 90 E 8 13 30.14 1021 5 8 0.07 1.78
2:37 pm 14:37 Cloudy with Rain 56 13.3 54 12.2 93 93 ESE 9 15 30.15 1021 4 6 0.11 2.79
2:53 pm 14:53 Cloudy with Light Rain 57 13.9 54 12.2 90 90 ESE 9 15 30.14 1021 10 16 0.11 2.79
3:32 pm 15:32 Cloudy with Light Rain 57 13.9 54 12.2 90 90 ESE 9 15 30.12 1020 3 4 0.02 0.51
3:39 pm 15:39 Cloudy with Light Rain 57 13.9 54 12.2 90 90 ESE 12 19 30.12 1020 2 3 0.03 0.76
3:50 pm 15:50 Cloudy with Light Rain 57 14 54 12 88 88 E 12 19 30.12 1020 4 6 0.04 1.02
3:53 pm 15:53 Cloudy with Light Rain 57 13.9 54 12.2 90 90 E 12 19 30.12 1020 4 6 0.04 1.02
4:32 pm 16:32 Cloudy with Light Rain 57 13.9 54 12.2 90 90 ESE 13 20 30.12 1020 3 4 0.04 1.02
4:40 pm 16:40 Cloudy with Light Rain 57 13.9 53 11.7 87 87 ESE 9 15 30.12 1020 8 13 0.04 1.02
4:53 pm 16:53 Cloudy with Light Rain 57 13.9 54 12.2 90 90 E 9 15 30.11 1020 9 14 0.04 1.02
5:53 pm 17:53 Cloudy with Light Rain 56 13.3 53 11.7 90 90 E 13 20 30.11 1020 8 13 0.05 1.27
6:23 pm 18:23 Cloudy with Light Rain 55 12.8 52 11.1 90 90 E 12 19 30.09 1019 10 16 0.00 0.03
6:53 pm 18:53 Cloudy with Light Rain 55 12.8 51 10.6 87 87 E 14 22 30.10 1019 10 16 0.01 0.25
7:07 pm 19:07 Cloudy with Light Rain 55 12.8 51 10.6 87 87 E 15 24 30.09 1019 10 16 0.00 0.03
7:53 pm 19:53 Cloudy 54 12.2 50 10 87 87 E 13 20 30.09 1019 10 16 0.00 0.03
8:53 pm 20:53 Cloudy with Light Rain 54 12.2 50 10 87 87 E 9 15 30.09 1019 10 16 0.00 0.03
9:53 pm 21:53 Cloudy with Light Rain 53 11.7 50 10 89 89 E 9 15 30.09 1019 10 16 0.01 0.25
10:53 pm 22:53 Cloudy 53 11.7 49 9.4 86 86 E 8 13 30.08 1019 10 16 0.00 0.03
11:53 pm 23:53 Cloudy 53 11.7 49 9.4 86 86 E 10 17 30.06 1018 10 16 0.00 0.03

Powered by AerisWeather